Location: Shell Point
(30.0571°N, 84.2896°W)
Time: 18:33:45
(UTC-04:00)

Meteor 2-19 Rocket - Visible Passes

Search period start: 01 April 2015 00:00
Search period end: 11 April 2015 00:00
Orbit: 935 x 960 km, 82.5° (Epoch: 01 April)

Date Brightness Start Highest point End Pass type
(mag) Time Alt. Az. Time Alt. Az. Time Alt. Az.
01 Apr 7.3 21:28:21 10° NW 21:32:11 17° W 21:35:42 10° WSW visible
03 Apr 5.3 20:15:47 10° NNW 20:21:45 58° W 20:27:42 10° S visible
04 Apr 6.3 20:33:12 10° NNW 20:38:40 34° W 20:44:01 10° SSW visible
05 Apr 7.2 20:51:07 10° NW 20:55:32 20° W 20:59:42 10° SW visible
06 Apr 8.0 06:43:33 10° E 06:45:06 11° E 06:47:09 10° ENE visible
06 Apr 7.8 21:10:23 10° WNW 21:12:21 11° W 21:13:50 10° W visible
07 Apr 7.3 06:57:46 10° SE 07:01:56 21° E 07:06:21 10° NE visible
10 Apr 7.6 20:32:30 10° NW 20:35:43 14° W 20:38:31 10° WSW visible
